Regional Weather Roundup
Issued by NWS

Home | Current Version | Previous Version | Text Only | Print | Product List | Glossary On
Versions: 1 2 3 4 5 6 7 8 9 10 11 12 13 14 15 16 17 18 19 20 21 22 23 24 25 26 27 28 29 30 31 32 33 34 35 36 37 38 39 40 41 42 43 44 45 46 47 48 49 50
000
ASUS45 KSLC 140210
RWRUT

UTAH REGIONAL WEATHER ROUNDUP
NATIONAL WEATHER SERVICE SALT LAKE CITY UT
700 PM MST WED NOV 13 2019

UTZ001>011-023>025-140300-

NORTHERN UTAH

CITY           SKY/WX    TMP DP  RH WIND       PRES   REMARKS
BRIGHAM CITY   CLEAR     43  30  60 CALM      30.15R
HILL AFB       CLEAR     49  28  44 N3        30.14R
LOGAN          CLEAR     41  28  60 CALM      30.14R
OGDEN          CLEAR     40  26  57 CALM      30.13R
SALT LAKE CITY PTCLDY    46  30  53 W3        30.13R
TOOELE VALLEY  CLEAR     37  30  75 S7        30.14R WCI  32
WENDOVER       CLEAR     40  24  53 W5        30.13R
HEBER CITY       N/A     36  23  60 E8        30.13R WCI  29
WEST JORDAN    CLEAR     45  35  68 SW3       30.14R

$$

UTZ011>015-024>027-140300-

CENTRAL/NORTHEAST UTAH

CITY           SKY/WX    TMP DP  RH WIND       PRES   REMARKS
PROVO AIRPORT  CLEAR     48  34  58 N8        30.14R
MOAB/CANYONLAN CLEAR     37   3  24 CALM      30.09R
DELTA          CLEAR     41  18  38 SE7       30.13S
PRICE          CLEAR     44  18  35 NW7       30.13R
ROOSEVELT      CLEAR     36  18  48 CALM      30.13R
DUCHESNE       CLEAR     45  19  36 W7        30.12R
VERNAL         CLEAR     36  17  46 W8        30.10R WCI  30

$$

UTZ013>016-019>022-027-140300-

SOUTHERN UTAH

CITY           SKY/WX    TMP DP  RH WIND       PRES   REMARKS
BRYCE CANYON   CLEAR     48  17  29 NW10      30.21R
CEDAR CITY     CLEAR     48  14  25 SE7       30.12R
MILFORD        CLEAR     46  19  34 NE6       30.11R
ST GEORGE      CLEAR     60  18  19 SE3       30.03R
HANKSVILLE     CLEAR     41   3  20 CALM      30.12R
KANAB          CLEAR     45  14  29 CALM      30.13R
BLANDING         N/A     37  10  33 NE6       30.20R WCI  33

$$

REGIONAL REPORTS     COLORADO/ARIZONA

CITY           SKY/WX    TMP DP  RH WIND       PRES   REMARKS
CRAIG, CO      CLEAR     34  22  61 CALM      30.11R
GRAND JUNCTION CLEAR     36   4  26 E3        30.11R
RIFLE, CO      CLEAR     41  16  36 SE3       30.12R
MONTROSE, CO   CLEAR     37  15  40 SE8       30.16R WCI  31
CORTEZ, CO     CLEAR     34  11  38 S6        30.13R WCI  29
COLORADO CITY    N/A     46  18  31 CALM      30.12R
PAGE, AZ       CLEAR     50  19  29 CALM      30.08R
GRAND CANYON   PTCLDY    36   7  29 CALM      30.18R
KINGMAN, AZ    PTCLDY    57  15  19 S7        30.04R
FLAGSTAFF, AZ  CLEAR     41  21  44 SW3       30.19R

$$

REGIONAL REPORTS    NEVADA/IDAHO/WYOMING

CITY           SKY/WX    TMP DP  RH WIND       PRES   REMARKS
LAS VEGAS, NV  MOCLDY    69  24  18 CALM      29.97R
ELY, NY        CLEAR     39  11  31 S7        30.16R WCI  34
ELKO, NV       PTCLDY    48  20  32 NE3       30.12R
POCATELLO, ID  PTCLDY    40  29  64 S5        30.14R
BURLEY, ID     CLEAR     38  29  70 CALM      30.11R
EVANSTON, WY   CLEAR     36  23  59 W9        30.18R WCI  29
ROCK SPRINGS,  CLEAR     40  24  53 W16G29    30.13R WCI  31
KEMMERER, WY   PTCLDY    36  25  64 NW7       30.17R WCI  30

$$



USA.gov is the U.S. government's official web portal to all federal, state and local government web resources and services.